Regional Weather Roundup
Issued by NWS

Home | Current Version | Previous Version | Graphics & Text | Print | Product List | Glossary On
Versions: 1 2 3 4 5 6 7 8 9 10 11 12 13 14 15 16 17 18 19 20 21 22 23 24 25 26 27 28 29 30 31 32 33 34 35 36 37 38 39 40 41 42 43 44 45 46 47 48 49 50
000
ASUS43 KOAX 300402
RWRNE
WEATHER ROUNDUP FOR NEBRASKA
NATIONAL WEATHER SERVICE OMAHA NE
1100 PM CDT MON JUN 29 2015

NOTES: SATELLITE DATA IS BEING USED TO AUGMENT CLOUD COVER ABOVE
       12000 FEET.
       "FAIR" INDICATES FEW OR NO CLOUDS BELOW 12,000 FEET WITH NO
       SIGNIFICANT WEATHER AND/OR OBSTRUCTIONS TO VISIBILITY.

  * THESE STATIONS DO NOT REPORT WEATHER SUCH AS RAIN...SNOW OR FOG.

NEZ001>004-019>022-054>056-300500-
NEBRASKA PANHANDLE

CITY           SKY/WX    TMP DP  RH WIND       PRES   REMARKS
SCOTTSBLUFF    CLEAR     73  56  54 S5        30.12R
ALLIANCE       CLEAR     66  59  78 CALM      30.10R
CHADRON        CLEAR     66  60  81 W6        30.06R
KIMBALL          N/A    N/A N/A N/A MISG        N/A
SIDNEY         CLEAR     63  60  90 SW8       30.15R
$$

NEZ057>060-069>072-079>082-300500-
SOUTHWEST NEBRASKA

CITY           SKY/WX    TMP DP  RH WIND       PRES   REMARKS
NORTH PLATTE   CLEAR     70  63  78 E5        30.04R
IMPERIAL       CLEAR     74  58  57 CALM      30.07R
LEXINGTON      CLEAR     72  63  72 S3        30.02R
MCCOOK         CLEAR     77  59  53 MISG      30.02R
$$

NEZ005>010-023>029-035>040-094-300500-
NORTH CENTRAL NEBRASKA

CITY           SKY/WX    TMP DP  RH WIND       PRES   REMARKS
VALENTINE      CLEAR     71  62  73 CALM      30.01R
AINSWORTH      CLEAR     73  64  73 CALM      30.02R
BROKEN BOW     CLEAR     69  61  75 CALM      30.02R
ORD            CLEAR     66  62  87 CALM      29.98R
$$

NEZ041-046>049-061>064-073>077-083>087-300500-
SOUTH CENTRAL NEBRASKA

CITY           SKY/WX    TMP DP  RH WIND       PRES   REMARKS
GRAND ISLAND   CLEAR     71  63  75 SE6       29.99R
AURORA         PTCLDY    73  63  70 SE3       29.99R
HASTINGS       PTCLDY    71  63  75 CALM      29.99R
KEARNEY *      PTCLDY    75  61  60 S3        30.00R
$$

NEZ011>018-030>034-042>045-300500-
NORTHEAST NEBRASKA

CITY           SKY/WX    TMP DP  RH WIND       PRES   REMARKS
NORFOLK        CLEAR     68  63  84 CALM      29.95R
ALBION         CLEAR     65  60  83 CALM      29.98R
BLAIR          CLEAR     72  60  66 CALM      29.93S
COLUMBUS *     CLEAR    N/A N/A N/A CALM      29.95S
FREMONT        CLEAR     73  65  77 CALM      29.94S
TEKAMAH        MOCLDY    70  63  78 W3        29.91S
$$

NEZ050>053-065>068-078-088>093-300500-
SOUTHEAST NEBRASKA

CITY           SKY/WX    TMP DP  RH WIND       PRES   REMARKS
LINCOLN        PTCLDY    72  64  76 CALM      29.95R
OMAHA EPPLEY   CLOUDY    73  66  78 CALM      29.92R
BEATRICE       CLEAR     73  65  77 CALM      29.96R
FALLS CITY     CLEAR     74  65  73 CALM      29.93R
NEBRASKA CITY  CLEAR     73  57  57 CALM      29.94S
PLATTSMOUTH    CLOUDY    71  61  70 SW5       29.93S
$$

NEZ044-045-051>053-067-300500-
OMAHA AREA

CITY           SKY/WX    TMP DP  RH WIND       PRES   REMARKS
OMAHA EPPLEY   CLOUDY    73  66  78 CALM      29.92R
BLAIR          CLEAR     72  60  66 CALM      29.93S
FREMONT        CLEAR     73  65  77 CALM      29.94S
MILLARD        CLEAR     71  65  79 CALM      29.92S
OFFUTT AFB     FAIR      69  64  84 CALM      29.91R
PLATTSMOUTH    CLOUDY    71  61  70 SW5       29.93S
WAHOO          FAIR      73  65  76 CALM      29.94S
$$



USA.gov is the U.S. government's official web portal to all federal, state and local government web resources and services.